ZS2JO Weather Reports


time (UTC)temp
F
wind
direction
speed
knots
gust
knots
rain 1hr
in
rain 24hr
in
rain mn
in
humidity
%
barometer
mb
20260504231711 61 222 4.3 12.2 0.00 0.00 0.00 84 1017.1
20260504231207 61 193 3.5 14.8 0.00 0.00 0.00 84 1016.9
20260504230703 61 185 3.5 11.3 0.00 0.00 0.00 84 1016.9
20260504230202 61 198 10.4 14.8 0.00 0.00 0.00 83 1017.0
20260504225701 61 214 7.8 15.6 0.00 0.00 0.00 83 1017.0
20260504225156 61 204 9.6 14.8 0.00 0.00 0.00 83 1016.9
20260504224654 61 184 1.7 13.0 0.00 0.00 0.00 83 1016.9
20260504224150 61 211 7.0 13.9 0.00 0.00 0.00 83 1017.0
20260504223647 61 219 5.2 13.0 0.00 0.00 0.00 83 1016.8
20260504223143 61 222 7.0 10.4 0.00 0.00 0.00 83 1016.8
20260504222640 61 195 4.3 11.3 0.00 0.00 0.00 83 1016.7
20260504222137 61 213 6.1 16.5 0.00 0.00 0.00 83 1016.6
20260504221634 61 205 5.2 15.6 0.00 0.00 0.00 83 1016.9
20260504221131 61 191 3.5 13.0 0.00 0.00 0.00 83 1016.7
20260504220627 62 191 4.3 13.0 0.00 0.00 0.00 83 1016.8
20260504220126 62 211 3.5 13.9 0.00 0.00 0.00 83 1016.9
20260504215621 62 218 4.3 14.8 0.00 0.00 0.00 84 1017.0
20260504215119 62 185 8.7 13.0 0.00 0.00 0.00 84 1017.0
20260504214614 62 196 8.7 11.3 0.00 0.00 0.00 84 1016.8
20260504214111 62 231 7.8 11.3 0.00 0.00 0.00 85 1016.9
20260504213608 62 224 2.6 14.8 0.00 0.00 0.00 84 1017.0
20260504213105 62 245 7.0 13.0 0.00 0.00 0.00 85 1017.0
20260504212600 62 214 7.8 13.0 0.00 0.00 0.00 85 1017.0
20260504212058 62 202 9.6 13.0 0.00 0.00 0.00 85 1017.1
20260504211554 62 213 7.8 16.5 0.00 0.00 0.00 85 1016.9
20260504211051 62 204 7.8 9.6 0.00 0.00 0.00 86 1017.1
20260504210549 62 201 7.0 15.6 0.00 0.00 0.00 86 1017.3
20260504210045 62 214 7.8 11.3 0.00 0.00 0.00 87 1017.2
20260504205543 62 187 9.6 13.9 0.00 0.00 0.00 87 1017.5
20260504205041 62 194 5.2 9.6 0.00 0.00 0.00 88 1017.5
20260504204538 62 208 6.1 11.3 0.00 0.00 0.00 88 1017.8
20260504204038 62 225 7.0 12.2 0.00 0.00 0.00 89 1017.5
20260504203535 62 235 9.6 12.2 0.00 0.00 0.00 89 1017.6
20260504203032 62 217 7.0 9.6 0.00 0.00 0.00 89 1017.6
20260504202528 62 218 4.3 10.4 0.00 0.00 0.00 89 1017.5
20260504202025 62 228 8.7 14.8 0.00 0.00 0.00 90 1017.6
20260504201522 62 179 4.3 17.4 0.00 0.00 0.00 90 1017.5
20260504201020 62 208 6.1 13.0 0.00 0.00 0.00 90 1017.5
20260504200516 62 230 6.1 14.8 0.00 0.00 0.00 91 1017.7
20260504200013 62 193 6.1 12.2 0.00 0.00 0.00 91 1017.8
20260504195509 62 241 5.2 12.2 0.00 0.00 0.00 91 1017.7
20260504195006 62 219 9.6 13.9 0.00 0.00 0.00 91 1017.8
20260504194502 62 207 7.8 11.3 0.00 0.00 0.00 91 1017.7
20260504193957 62 259 6.1 13.9 0.00 0.00 0.00 91 1017.5
20260504193454 62 226 4.3 14.8 0.00 0.00 0.00 91 1017.6
20260504192953 62 187 3.5 11.3 0.00 0.00 0.00 91 1017.4
20260504192450 62 189 7.0 12.2 0.00 0.00 0.00 91 1017.3
20260504191949 62 180 7.0 14.8 0.00 0.00 0.00 91 1017.6
20260504191446 62 222 6.1 15.6 0.00 0.00 0.00 91 1017.3
20260504190941 62 225 6.1 11.3 0.00 0.00 0.00 91 1017.4
20260504190438 62 213 9.6 11.3 0.00 0.00 0.00 91 1017.2
20260504185935 63 185 7.8 13.0 0.00 0.00 0.00 91 1017.4
20260504185432 63 214 4.3 13.0 0.00 0.00 0.00 91 1017.2
20260504184928 63 207 3.5 13.0 0.00 0.00 0.00 91 1017.3
20260504184423 63 237 1.7 12.2 0.00 0.00 0.00 92 1017.2
20260504183920 63 193 7.8 10.4 0.00 0.00 0.00 92 1017.2
20260504183417 63 203 6.1 9.6 0.00 0.00 0.00 93 1017.4
20260504182915 63 192 3.5 18.2 0.00 0.00 0.00 93 1017.2
20260504182412 63 205 2.6 11.3 0.00 0.00 0.00 93 1017.1
20260504181909 63 217 5.2 11.3 0.00 0.00 0.00 93 1017.3
20260504181406 63 232 7.0 15.6 0.00 0.00 0.00 93 1017.2
20260504180904 63 229 6.1 9.6 0.00 0.00 0.00 93 1017.0
20260504180403 63 204 4.3 12.2 0.00 0.00 0.00 94 1017.2
20260504175901 63 193 7.8 16.5 0.00 0.00 0.00 94 1017.0
20260504175357 63 211 4.3 10.4 0.00 0.00 0.00 94 1017.0
20260504174855 63 202 3.5 11.3 0.00 0.00 0.00 95 1016.6
20260504174352 63 204 5.2 11.3 0.00 0.00 0.00 95 1016.8
20260504173849 63 212 9.6 11.3 0.00 0.00 0.00 95 1016.8
20260504173346 63 201 4.3 15.6 0.00 0.00 0.00 94 1016.8
20260504172843 63 191 4.3 11.3 0.00 0.00 0.00 94 1016.3
20260504172340 64 189 5.2 12.2 0.00 0.00 0.00 94 1016.3
20260504171835 64 186 2.6 14.8 0.00 0.00 0.00 93 1016.4
20260504171333 64 204 7.8 10.4 0.00 0.00 0.00 93 1016.5
20260504170830 64 181 6.1 11.3 0.00 0.00 0.00 93 1016.4
20260504170327 64 220 6.1 11.3 0.00 0.00 0.00 93 1016.5
20260504160245 64 207 7.8 12.2 0.00 0.00 0.00 95 1016.4
20260504150710 65 240 11.3 14.8 0.00 0.00 0.00 92 1015.6
20260504150207 65 204 7.8 13.0 0.00 0.00 0.00 92 1015.7
20260504141136 65 207 7.0 12.2 0.00 0.00 0.00 95 1016.0
20260504140633 65 247 4.3 15.6 0.00 0.00 0.00 95 1016.1
20260504140129 65 216 2.6 12.2 0.00 0.00 0.00 95 1016.1
20260504130557 66 178 7.0 11.3 0.00 0.00 0.00 97 1014.7
20260504110445 69 184 4.3 5.2 0.00 0.00 0.00 91 1014.2
20260504100401 72 218 3.5 9.6 0.00 0.00 0.00 86 1015.4
20260504081754 74 199 1.7 6.1 0.00 0.00 0.00 81 1014.7
20260504081251 72 239 5.2 11.3 0.00 0.00 0.00 83 1015.0
20260504080748 73 207 4.3 7.8 0.00 0.00 0.00 81 1014.8
20260504080244 73 181 4.3 6.1 0.00 0.00 0.00 82 1015.0
20260504070212 71 209 4.3 6.1 0.00 0.00 0.00 83 1014.7
20260504060132 70 201 2.6 8.7 0.00 0.00 0.00 85 1014.4
20260504050600 68 244 0.0 9.6 0.00 0.00 0.00 90 1014.2
20260504045554 68 174 0.9 9.6 0.00 0.00 0.00 90 1014.0
20260504045049 67 221 1.7 2.6 0.00 0.00 0.00 92 1014.0
20260504044547 67 229 0.9 3.5 0.00 0.00 0.00 92 1014.0
20260504044044 67 316 1.7 3.5 0.00 0.00 0.00 91 1013.9
20260504043541 67 271 2.6 3.5 0.00 0.00 0.00 91 1014.0
20260504043038 67 201 1.7 3.5 0.00 0.00 0.00 90 1013.7
20260504042535 68 272 3.5 5.2 0.00 0.00 0.00 90 1013.8
20260504042032 68 238 0.0 3.5 0.00 0.00 0.00 91 1013.8
20260504041527 67 199 2.6 4.3 0.00 0.00 0.00 90 1013.9
20260504041024 67 272 5.2 7.0 0.00 0.00 0.00 90 1013.8
20260504040522 68 249 3.5 8.7 0.00 0.00 0.00 90 1013.8
20260504040018 68 243 8.7 8.7 0.00 0.00 0.00 90 1013.9
20260504035515 68 246 2.6 6.1 0.00 0.00 0.00 89 1013.9
20260504035011 68 278 2.6 7.8 0.00 0.00 0.00 89 1013.9
20260504034509 68 233 5.2 11.3 0.00 0.00 0.00 90 1013.9
20260504034006 67 268 6.1 7.8 0.00 0.00 0.00 90 1014.1
20260504033504 67 256 6.1 7.8 0.00 0.00 0.00 91 1014.0
20260504033001 67 258 4.3 6.1 0.00 0.00 0.00 90 1013.9
20260504032458 67 227 1.7 3.5 0.00 0.00 0.00 89 1014.0
20260504031954 67 264 3.5 4.3 0.00 0.00 0.00 88 1013.9
20260504031451 67 258 2.6 8.7 0.00 0.00 0.00 87 1013.8
20260504030948 67 236 7.8 7.8 0.00 0.00 0.00 87 1013.8
20260504030445 67 235 4.3 7.8 0.00 0.00 0.00 87 1014.1
20260504025940 67 234 4.3 7.0 0.00 0.00 0.00 86 1014.0
20260504025438 67 271 4.3 7.0 0.00 0.00 0.00 85 1014.1
20260504024935 67 259 1.7 5.2 0.00 0.00 0.00 84 1014.2
20260504024432 68 246 2.6 6.1 0.00 0.00 0.00 83 1014.1
20260504023929 68 240 1.7 8.7 0.00 0.00 0.00 82 1014.0
20260504023425 68 241 3.5 6.1 0.00 0.00 0.00 80 1013.8
20260504022921 67 220 7.0 8.7 0.00 0.00 0.00 79 1013.9
20260504022417 68 223 7.8 9.6 0.00 0.00 0.00 77 1013.9
20260504021914 68 230 5.2 7.0 0.00 0.00 0.00 75 1013.9
20260504021411 68 232 7.0 9.6 0.00 0.00 0.00 73 1014.0
20260504020909 68 229 8.7 8.7 0.00 0.00 0.00 70 1014.1
20260504020405 68 225 4.3 7.8 0.00 0.00 0.00 69 1014.0
20260504015901 69 239 6.1 10.4 0.00 0.00 0.00 66 1014.2
20260504015357 69 205 4.3 7.0 0.00 0.00 0.00 64 1014.1
20260504014853 69 243 7.8 10.4 0.00 0.00 0.00 64 1014.2
20260504014350 69 221 7.8 8.7 0.00 0.00 0.00 64 1013.9
20260504013847 69 188 6.1 9.6 0.00 0.00 0.00 64 1014.0
20260504013345 67 251 3.5 5.2 0.00 0.00 0.00 65 1014.2
20260504012842 65 124 0.0 3.5 0.00 0.00 0.00 69 1014.2
20260504012339 62 213 0.0 1.7 0.00 0.00 0.00 74 1014.0
20260504011837 60 49 0.0 1.7 0.00 0.00 0.00 78 1014.2
20260504011333 61 107 0.0 1.7 0.00 0.00 0.00 77 1014.0
20260504010829 61 149 0.0 0.9 0.00 0.00 0.00 76 1014.1
20260504010325 62 173 1.7 1.7 0.00 0.00 0.00 75 1014.3
20260504005821 62 80 0.0 2.6 0.00 0.00 0.00 74 1014.0
20260504005319 63 120 1.7 3.5 0.00 0.00 0.00 73 1014.1
20260504004816 63 56 0.0 1.7 0.00 0.00 0.00 71 1014.2
20260504004314 63 53 3.5 3.5 0.00 0.00 0.00 71 1014.2
20260504003810 64 56 0.0 3.5 0.00 0.00 0.00 70 1014.0
20260504003307 65 133 0.0 0.9 0.00 0.00 0.00 66 1014.0
20260504002803 66 204 1.7 2.6 0.00 0.00 0.00 64 1014.2
20260504002300 67 232 0.9 2.6 0.00 0.00 0.00 62 1014.2
20260504001758 64 283 1.7 3.5 0.00 0.00 0.00 66 1014.3
20260504001255 64 255 0.9 2.6 0.00 0.00 0.00 69 1014.4
20260504000752 64 217 1.7 2.6 0.00 0.00 0.00 69 1014.3
20260504000249 64 184 0.9 1.7 0.00 0.00 0.00 68 1014.5
20260503235747 66 269 0.0 3.5 0.00 0.00 0.00 64 1014.4
20260503235244 66 228 1.7 1.7 0.00 0.00 0.00 64 1014.6
20260503234741 67 239 1.7 2.6 0.00 0.00 0.00 63 1014.6
20260503234239 67 225 1.7 3.5 0.00 0.00 0.00 62 1014.5
20260503233736 69 250 1.7 2.6 0.00 0.00 0.00 59 1014.6
20260503233232 69 287 0.9 2.6 0.00 0.00 0.00 59 1014.5
20260503232729 69 250 1.7 3.5 0.00 0.00 0.00 60 1014.6
20260503232226 68 252 3.5 4.3 0.00 0.00 0.00 60 1014.6